Weather History for KROC - October, 2011

Change the Weather History Date:

Saturday, October 1, 2011

  Actual Average Record
Temperature  
Mean Temperature 49 °F 56 °F  
Max Temperature 54 °F 65 °F 86 °F (1877)
Min Temperature 43 °F 46 °F 31 °F (1993)
Degree Days  
Heating Degree Days 16 10  
Month to date heating degree days 16 10  
Since 1 July heating degree days 111 191  
Cooling Degree Days 0 0  
Month to date cooling degree days 0 0  
Year to date cooling degree days 694 534  
Moisture  
Dew Point 44 °F    
Average Humidity 79    
Maximum Humidity 93    
Minimum Humidity 65    
Precipitation  
Precipitation 0.43 in 0.09 in 1.99 in (1945)
Month to date precipitation 0.43 0.09  
Year to date precipitation 30.75 26.07  
Snow  
Snow 0.00 in 0.00 in T in (1940)
Month to date snowfall 0.0 0.0  
Since 1 July snowfall 0.0 0.0  
Since 1 September snowfall 0.0 0.0  
Snow Depth 0.00 in    
Sea Level Pressure  
Sea Level Pressure 29.89 in    
Wind  
Wind Speed 16 mph (NNE)    
Max Wind Speed 28 mph    
Max Gust Speed 36 mph    
Visibility 7 miles    
Events Rain    
T = Trace of Precipitation, MM = Missing Value Source: NWS Daily Summary

Daily Weather History Graph

Daily Weather History Graph

Search for Another Location

Airport or City:

Trip Planner

Search our weather history database for the weather conditions in past years. The results will help you decide how hot, cold, wet, or windy it might be!

Date:

Astronomy

Oct. 01, 2011 Rise Set
Actual Time 7:07 AM EDT 6:52 PM EDT
Civil Twilight 6:39 AM EDT 7:20 PM EDT
Nautical Twilight 6:06 AM EDT 7:53 PM EDT
Astronomical Twilight 5:32 AM EDT 8:26 PM EDT
Moon 12:20 PM EDT (10/1) 9:38 PM EDT (10/1)
Length of Visible Light 12h 41m
Length of Day
11h 44m
Waxing Crescent, 24% of the Moon is Illuminated
Oct 1
Waxing Crescent
Oct 3
First Quarter
Oct 11
Full
Oct 19
Last Quarter
Oct 26
New

Hourly Weather History & Observations

Time (EDT) Temp. Windchill Dew Point Humidity Pressure Visibility Wind Dir Wind Speed Gust Speed Precip Events Conditions
12:54 AM 54.0 °F - 50.0 °F 86% 29.73 in 10.0 mi WNW 5.8 mph - N/A   Overcast
1:26 AM 53.6 °F - 51.8 °F 94% 29.74 in 3.0 mi NW 4.6 mph - 0.03 in Rain Heavy Rain
1:33 AM 53.6 °F - 51.8 °F 94% 29.75 in 2.5 mi NW 3.5 mph - 0.09 in Rain Heavy Rain
1:44 AM 53.6 °F - 51.8 °F 94% 29.74 in 3.0 mi West 10.4 mph - 0.20 in Rain Light Rain
1:54 AM 54.0 °F - 52.0 °F 93% 29.74 in 6.0 mi NE 16.1 mph 20.7 mph 0.22 in Rain Light Rain
2:10 AM 53.6 °F - 51.8 °F 94% 29.74 in 10.0 mi NE 13.8 mph 23.0 mph 0.00 in Rain Light Rain
2:47 AM 53.6 °F - 51.8 °F 94% 29.76 in 3.0 mi NE 16.1 mph 25.3 mph 0.02 in Rain Light Rain
2:54 AM 53.1 °F - 51.1 °F 93% 29.76 in 5.0 mi NE 20.7 mph 24.2 mph 0.02 in Rain Light Rain
3:54 AM 51.1 °F - 48.9 °F 92% 29.77 in 4.0 mi NNE 20.7 mph 26.5 mph 0.02 in Rain Light Rain
4:54 AM 51.1 °F - 48.9 °F 92% 29.79 in 3.0 mi NNE 16.1 mph - 0.03 in Rain Light Rain
5:54 AM 48.9 °F - 46.9 °F 93% 29.81 in 4.0 mi NNE 19.6 mph - 0.03 in Rain Light Rain
6:02 AM 48.2 °F - 46.4 °F 93% 29.81 in 6.0 mi NNE 16.1 mph - 0.00 in Rain Light Rain
6:21 AM 48.2 °F - 46.4 °F 93% 29.82 in 8.0 mi NNE 19.6 mph - 0.00 in Rain Light Rain
6:54 AM 48.9 °F - 46.0 °F 90% 29.85 in 9.0 mi NNE 15.0 mph 25.3 mph 0.01 in Rain Light Rain
7:54 AM 48.0 °F - 44.1 °F 86% 29.87 in 8.0 mi NNE 19.6 mph - 0.00 in Rain Light Rain
8:54 AM 46.9 °F - 43.0 °F 86% 29.91 in 9.0 mi NNE 19.6 mph - 0.00 in   Overcast
9:09 AM 46.4 °F 38.5 °F 42.8 °F 87% 29.91 in 10.0 mi NNE 21.9 mph 28.8 mph N/A   Overcast
9:52 AM 46.4 °F 39.5 °F 42.8 °F 87% 29.92 in 2.5 mi NNE 17.3 mph - 0.00 in Rain Light Rain
9:54 AM 46.0 °F 39.6 °F 43.0 °F 89% 29.93 in 2.5 mi NNE 15.0 mph - 0.00 in Rain Light Rain
10:54 AM 46.0 °F 39.6 °F 42.1 °F 86% 29.95 in 4.0 mi North 15.0 mph 26.5 mph 0.01 in Rain Light Rain
11:15 AM 46.4 °F 40.1 °F 42.8 °F 87% 29.94 in 2.0 mi North 15.0 mph 23.0 mph 0.00 in Rain Light Rain
11:54 AM 46.0 °F 39.6 °F 43.0 °F 89% 29.96 in 2.5 mi NNE 15.0 mph - 0.00 in Rain Light Rain
12:29 PM 46.4 °F 41.5 °F 42.8 °F 87% 29.95 in 5.0 mi North 10.4 mph - 0.01 in Rain Light Rain
12:54 PM 46.0 °F 40.2 °F 42.1 °F 86% 29.96 in 7.0 mi North 12.7 mph - 0.01 in Rain Light Rain
1:54 PM 46.9 °F - 39.9 °F 77% 29.96 in 10.0 mi North 11.5 mph - 0.00 in   Overcast
2:00 PM - - - N/A% - - North - - N/A   Unknown
2:54 PM 46.9 °F - 39.0 °F 74% 29.97 in 10.0 mi North 13.8 mph - N/A   Overcast
3:54 PM 46.9 °F - 37.9 °F 71% 29.98 in 10.0 mi North 11.5 mph - N/A   Overcast
4:54 PM 46.9 °F - 37.9 °F 71% 29.99 in 10.0 mi North 13.8 mph - N/A   Overcast
5:54 PM 48.0 °F - 37.9 °F 68% 30.00 in 10.0 mi NNE 10.4 mph - N/A   Overcast
6:23 PM 48.2 °F - 37.4 °F 66% 29.99 in 10.0 mi NNE 10.4 mph - N/A   Mostly Cloudy
6:54 PM 48.0 °F - 37.9 °F 68% 30.00 in 10.0 mi NNE 12.7 mph - 0.00 in Rain Light Rain
7:54 PM 48.9 °F - 36.0 °F 61% 30.01 in 10.0 mi NNE 15.0 mph 24.2 mph 0.00 in Rain Light Rain
8:54 PM 46.9 °F - 36.0 °F 66% 30.02 in 10.0 mi NNE 20.7 mph 31.1 mph 0.00 in Rain Light Rain
9:54 PM 45.0 °F 38.2 °F 37.9 °F 76% 30.02 in 10.0 mi NNE 15.0 mph 26.5 mph 0.01 in Rain Light Rain
10:54 PM 45.0 °F 37.6 °F 39.0 °F 80% 30.01 in 10.0 mi NNE 17.3 mph 24.2 mph 0.02 in Rain Light Rain
11:45 PM 44.6 °F 36.9 °F 39.2 °F 81% 29.99 in 7.0 mi NNE 18.4 mph 24.2 mph 0.02 in Rain Rain
11:54 PM 44.1 °F 35.9 °F 39.9 °F 85% 30.00 in 8.0 mi NNE 19.6 mph 24.2 mph 0.03 in Rain Light Rain